Content
SEND FEEDBACK

Daily
Averages
Monthly
Summary
United States of America

ST. LOUIS, MISSOURI


Home > North America > United States > Missouri
Elevation: 535 feet     Latitude: 38 45N     Longitude: 090 22W

WEATHER
 
SELECT A DAY
Number of Records: 196,446;   Date Range: 1/1/95 - 8/12/14
 
SHARE

PRINT THIS DATA

[ ← Previous Day ]
WEATHER ALMANAC - MAY 21, 2013
[ Next Day → ]
[ °C ]   °F
Weather ElementAverageHighLow
Temperature68.9 °F79 °F (1:54 pm)64 °F (12:54 am)
Dewpoint61.7 °F64.9 °F (12:54 pm)60.1 °F (5:54 am)
Humidity78.4 %94 % (12:23 am)56 % (2:54 pm)
Barometer29.74 in29.80 in (12:23 am)29.68 in (4:54 pm)
Wind Speed7.1 mph15 mph (2:10 am)
Wind Gust20.7 mph (2:10 am)
Weather ElementAverage
Visibility9.2 mi
Wind DirectionS (176.9 °)

Weather ElementTotal
Precipitation2.59 in
Cooling Degree Days6.5 (Base 65)
Growing Degree Days21.5 (Base 50)
Averaged from 29 records on May 21, 2013
WEATHER CONDITIONS BREAKOUT
WIND DIRECTION BREAKOUT
WEATHER BY HOUR - MAY 21, 2013
[ °C ]   °F
Local TimeTemperatureDewpointHumidityBarometerVisibilityWind DirectionWind SpeedGust SpeedPrecipitationEventsConditions
12:23 AM64.4 °F62.6 °F94 %29.80 in10.0 miWest (260°)8.1 mph0.00 inPartly Cloudy
12:54 AM64.0 °F62.1 °F93 %29.77 in10.0 miSSE (150°)3.5 mph0.00 inScattered Clouds
1:54 AM64.9 °F62.1 °F90 %29.77 in10.0 miSW (220°)5.8 mph0.01 inRain-ThunderstormLight Thunderstorms and Rain
2:00 AM64.4 °F62.6 °F94 %29.77 in1.8 miSSE (150°)8.1 mph0.14 inRain-ThunderstormHeavy Thunderstorms and Rain
2:10 AM66.2 °F60.8 °F83 %29.79 in1.2 miSouth (180°)15.0 mph20.7 mph0.40 inRain-ThunderstormHeavy Thunderstorms and Rain
2:24 AM64.4 °F60.8 °F88 %29.77 in3.0 miSSE (150°)11.5 mph0.68 inRain-ThunderstormLight Thunderstorms and Rain
2:34 AM64.4 °F60.8 °F88 %29.78 in10.0 miSSE (160°)8.1 mph0.68 inThunderstormThunderstorm
2:54 AM64.9 °F61.0 °F87 %29.75 in10.0 miSE (130°)4.6 mph0.68 inPartly Cloudy
3:54 AM64.9 °F61.0 °F87 %29.74 in10.0 miSSE (150°)4.6 mphClear
4:54 AM64.0 °F61.0 °F90 %29.73 in10.0 miCalmClear
5:54 AM64.0 °F60.1 °F87 %29.73 in10.0 miWSW (240°)4.6 mphMostly Cloudy
6:54 AM66.0 °F60.1 °F81 %29.76 in10.0 miSW (220°)9.2 mphClear
7:54 AM66.9 °F60.1 °F79 %29.78 in10.0 miSW (230°)8.1 mphOvercast
8:54 AM68.0 °F61.0 °F78 %29.78 in10.0 miSouth (190°)5.8 mphMostly Cloudy
9:54 AM71.1 °F62.1 °F73 %29.76 in10.0 miSSW (200°)8.1 mphOvercast
10:54 AM72.0 °F63.0 °F73 %29.76 in10.0 miSW (230°)6.9 mphMostly Cloudy
11:54 AM73.0 °F64.0 °F73 %29.77 in10.0 miSSW (210°)10.4 mphMostly Cloudy
12:54 PM77.0 °F64.9 °F66 %29.76 in10.0 miSouth (180°)9.2 mphMostly Cloudy
1:54 PM79.0 °F64.0 °F60 %29.74 in10.0 miSSW (200°)9.2 mph19.6 mphMostly Cloudy
2:54 PM79.0 °F62.1 °F56 %29.75 in10.0 miSSW (210°)12.7 mph19.6 mphScattered Clouds
3:54 PM77.0 °F61.0 °F58 %29.71 in10.0 miSouth (190°)10.4 mphMostly Cloudy
4:54 PM73.9 °F61.0 °F64 %29.68 in10.0 miSSW (210°)8.1 mphMostly Cloudy
5:54 PM73.0 °F61.0 °F66 %29.71 in10.0 miSSW (200°)5.8 mphMostly Cloudy
6:54 PM73.9 °F61.0 °F64 %29.72 in10.0 miSW (220°)5.8 mphMostly Cloudy
7:54 PM71.1 °F62.1 °F73 %29.71 in10.0 miSSE (160°)4.6 mphMostly Cloudy
8:54 PM68.0 °F62.1 °F81 %29.69 in10.0 miSSE (160°)5.8 mphMostly Cloudy
9:54 PM68.0 °F61.0 °F78 %29.68 in10.0 miSSE (150°)5.8 mphClear
10:54 PM66.9 °F62.1 °F84 %29.68 in10.0 miSouth (180°)6.9 mphClear
11:54 PM64.9 °F61.0 °F87 %29.70 in10.0 miCalmClear
Hourly data recorded from KSUS, located miles away from St. Louis, Missouri







STORIES FROM OUR PARTNERS